Location: Newark
(48.1500°N, 13.1167°E)
Time: 06:58:43
(UTC+00:00)

KAITUO 1B - Pass Details

Date: 07 December 2021
Orbit: 486 x 507 km, 97.4° (Epoch: 18 January)

Event Time Altitude Azimuth Distance (km) Brightness Sun altitude
Rises 05:20:04 0° 18° (NNE) 2,629 ? -13.3°
Reaches altitude 10° 05:22:15 10° 26° (NNE) 1,735 ? -13.0°
Maximum altitude 05:25:49 43° 98° (E) 722 ? -12.4°
Drops below altitude 10° 05:29:21 10° 172° (S) 1,708 ? -11.8°
Sets 05:31:29 0° 179° (S) 2,582 ? -11.5°
